Location: Gorlice
(49.6633°N, 21.1693°E)
Time: 04:38:39
(UTC+01:00)

ISS - Visible Passes

Search period start: 24 November 2017 00:00
Search period end: 04 December 2017 00:00
Orbit: 402 x 407 km, 51.6° (Epoch: 24 November)

Date Brightness Start Highest point End Pass type
(mag) Time Alt. Az. Time Alt. Az. Time Alt. Az.
27 Nov -1.2 17:34:43 10° SSE 17:35:10 11° SSE 17:35:10 11° SSE visible
28 Nov -1.3 18:16:50 10° SW 18:17:50 17° SSW 18:17:50 17° SSW visible
29 Nov -2.3 17:24:58 10° SSW 17:27:40 24° SE 17:27:45 24° SE visible
30 Nov -1.6 16:33:32 10° S 16:35:29 15° SE 16:37:27 10° ESE visible
30 Nov -2.3 18:08:14 10° WSW 18:10:15 34° SW 18:10:15 34° SW visible
01 Dec -3.2 17:16:02 10° SW 17:19:10 43° SSE 17:20:01 34° ESE visible
01 Dec -0.4 18:52:18 10° W 18:52:40 13° W 18:52:40 13° W visible
02 Dec -2.4 16:24:02 10° SSW 16:26:53 27° SE 16:29:44 10° E visible
02 Dec -3.0 17:59:50 10° WSW 18:02:23 50° W 18:02:23 50° W visible
03 Dec -3.8 17:07:26 10° WSW 17:10:43 74° SSE 17:12:04 32° E visible
03 Dec -0.7 18:44:02 10° W 18:44:42 15° W 18:44:42 15° W visible
